FREGAT R/B (46806 NORAD) Tracking and Keplerian Element Data

This shows tracking and keplerian element data for the satellite.

Feedback or suggestion? Click here.




ElementValue
Catalog46806
NameFREGAT R/B
Epoch Orbit16
Epoch Day307.52327716
Epoch Year2020
RAAN261.5135
Inclination64.7974
Eccentricity0.0070526
Argument of Perigee116.6498
Mean Anonmoly244.0585
Mean Motion2.0889234
Decay Rate1E-07
L11 46806U 20075B 20307.52327716 .00000010 00000+0 00000+0 0 9992
L22 46806 64.7974 261.5135 0070526 116.6498 244.0585 2.08892340 162



Live tracking and technical data element details for FREGAT R/B (NORAD 46806). FREGAT R/B can be tracked NOW for your location showing map with azimuth and elevation plus other details from your city location.







IsCatalogInMostPopularTable: catalog: 46806, numindb: 144
Update: records affected: 1



GetName: 46806 FREGAT R/B

Hit Count: updated at: Sat, 30 Sep 2023 03:32:51 GMT